Regional Weather Roundup
Issued by NWS

Home | Current Version | Previous Version | Text Only | Print | Product List | Glossary Off
Versions: 1 2 3 4 5 6 7 8 9 10 11 12 13 14 15 16 17 18 19 20 21 22 23 24 25 26 27 28 29 30 31 32 33 34 35 36 37 38 39 40 41 42 43 44 45 46 47 48 49 50

000
ASUS44 KMEG 160210
RWRTN
TENNESSEE HOURLY STATE WEATHER ROUNDUP
NATIONAL WEATHER SERVICE MEMPHIS TN
800 PM CST FRI DEC 15 2017

TNZ002-004-019-021-049-052-054-088>092-160300-
WEST TENNESSEE

CITY           SKY/WX    TMP DP  RH WIND       PRES   REMARKS
MEMPHIS INTL   CLEAR     38  27  64 S8        30.20R WCI  32
NWS MEMPHIS      N/A     40 N/A N/A MISG        N/A
JACKSON        CLEAR     33  25  72 S7        30.20R WCI  27
DYERSBURG      CLEAR     39  27  62 S5        30.18R
SOMERVILLE     CLEAR     39  27  60 S7        30.19S WCI  34
COVINGTON      PTCLDY    36  27  69 S8        30.19S WCI  29
UNION CITY     PTCLDY    37  27  65 SW7       30.16R WCI  32
BOLIVAR        CLEAR     34  25  69 SE5       30.20R WCI  30
PARIS          PTCLDY    32  27  80 S7        30.16R WCI  26
HUNTINGDON     CLEAR     36  27  69 S6        30.17R WCI  31
LEXINGTON      CLEAR     30  25  80 CALM      30.20R
SELMER         PTCLDY    30  25  80 SW5       30.20R WCI  25
SAVANNAH       PTCLDY    28  25  86 CALM      30.21R
$$

TNZ008-025-027-028-033-062-065-066-160300-
NORTH MIDDLE TENNESSEE

CITY           SKY/WX    TMP DP  RH WIND       PRES   REMARKS
NASHVILLE      CLOUDY    32  24  72 S6        30.21R WCI  26
PORTLAND       CLOUDY    34  23  64 S9        30.15S WCI  26
CLARKSVILLE    CLEAR     37  22  54 S5        30.16R WCI  33
SMYRNA         MOCLDY    27  23  85 SE3       30.22R
COOKEVILLE     CLOUDY    25  21  86 CALM      30.18S
GALLATIN       CLOUDY    36  25  64 CALM      30.22R
CROSSVILLE     PTCLDY    24  18  77 SW3       30.16R
$$

TNZ061-075-076-078-094-096-097-160300-
SOUTH MIDDLE TENNESSEE

CITY           SKY/WX    TMP DP  RH WIND       PRES   REMARKS
FAYETTEVILLE   CLEAR     28  23  80 CALM      30.20R
TULLAHOMA      CLEAR     25  21  86 CALM      30.19R
WINCHESTER     CLEAR     25  19  80 CALM      30.22R
MCMINNVILLE    CLEAR     25  21  86 CALM      30.20R
COLUMBIA       CLEAR     28  23  80 CALM      30.19R
SHELBYVILLE    CLEAR     25  21  86 CALM      30.20R
$$

TNZ017-018-042-046-047-160300-
NORTHEAST TENNESSEE

CITY           SKY/WX    TMP DP  RH WIND       PRES   REMARKS
TRI CITIES     CLOUDY    30  22  72 SW3       30.15R
ELIZABETHTON   CLOUDY    32  19  59 W8        30.15R WCI  25
$$

TNZ012-013-036-069-073-074-160300-
CENTRAL EAST TENNESSEE

CITY           SKY/WX    TMP DP  RH WIND       PRES   REMARKS
KNOXVILLE      PTCLDY    28  24  85 SW5       30.20R WCI  23
OAK RIDGE      MOCLDY    28  22  78 CALM      30.21R
DOWNTOWN KNOXV CLEAR     30  23  74 W5        30.22R WCI  25
GATLINBURG     PTCLDY    28  21  74 CALM      30.20R
MORRISTOWN     PTCLDY    28  23  80 SW7       30.17R WCI  21
JACKSBORO      CLOUDY    27  21  80 CALM      30.21S
$$

TNZ083-085-099-160300-
SOUTHEAST TENNESSEE

CITY           SKY/WX    TMP DP  RH WIND       PRES   REMARKS
CHATTANOOGA    PTCLDY    29  22  75 CALM      30.22R
DAYTON         CLEAR     25  23  93 CALM      30.21R
$$

SKY/WX REPORTED AS FAIR MEANS FEW OR NO CLOUDS BELOW
12 THOUSAND FEET.





USA.gov is the U.S. government's official web portal to all federal, state and local government web resources and services.